{"data":{"norad_id":63024,"intl_designator":"2025-032V","name":"STARLINK-32803","alt_names":[],"object_type":"PAYLOAD","status":"ACTIVE","operator":null,"country":"US","launch_date":"2025-02-15","launch_site_code":"AFETR","launch_vehicle":null,"mission":null,"orbit_class":"UNKNOWN","rcs_meters":null,"size_class":null,"mass_kg":null,"dimensions":null,"purposes":["comms"],"wikipedia_slug":null,"has_3d_model":false,"image_url":null,"decayed_at":null,"tle_current":{"epoch":"2026-05-24T17:47:49.896672Z","epoch_age_seconds":101387,"freshness":"FRESH","line1":"1 63024U 25032V   26144.74154973  .00007641  00000+0  28681-3 0  9999","line2":"2 63024  43.0001 266.3329 0001573 275.4371  84.6301 15.27588543 72099","mean_motion":15.27588543,"eccentricity":0.0001573,"inclination_deg":43.0001,"raan_deg":266.3329,"arg_perigee_deg":275.4371,"mean_anomaly_deg":84.6301,"bstar":0.00028681,"rev_number":7209,"period_min":94.266221529262,"perigee_km":481.94425479448,"apogee_km":484.1027758926,"semimajor_km":6861.1605153435,"source":"CELESTRAK","updated_at":"2026-05-25T13:38:19.863807Z"}}}